カタログに戻る

GSAT 15

運用中通信GEO
NORAD 41028·PAYLOAD·🇮🇳 India

打ち上げ Nov 10, 2015 から Guiana Space Centre

Loading…

TLE

最新Source: Space-Track

元期: Sep 14, 2026, 14:14 UTC

1 41028U 15065A   26257.59364775 -.00000265  00000-0  00000-0 0  9994
2 41028   0.0371 260.0143 0001807 245.3533 155.3813  1.00270686 39698

AllMySatでGSAT 15をリアルタイム追跡

Download on the App Store